Time,TemperatureF,DewpointF,PressureIn,WindDirection,WindDirectionDegrees,WindSpeedMPH,WindSpeedGustMPH,Humidity,HourlyPrecipIn,Conditions,Clouds,dailyrainin,SoftwareType,DateUTC
2013-06-12 00:10:00,66.1,61.0,29.90,SSE,155,0.0,5.0,82,0.00,,,0.00,weatherlink.com 1.10,2013-06-12 07:10:00,
2013-06-12 00:25:00,66.1,60.0,29.91,South,169,4.0,5.0,81,0.00,,,0.00,weatherlink.com 1.10,2013-06-12 07:25:00,
2013-06-12 00:40:00,66.0,60.0,29.91,South,189,2.0,4.0,81,0.00,,,0.00,weatherlink.com 1.10,2013-06-12 07:40:00,
2013-06-12 00:55:00,65.8,60.0,29.91,SW,220,1.0,4.0,81,0.00,,,0.00,weatherlink.com 1.10,2013-06-12 07:55:00,
2013-06-12 01:10:00,65.9,60.0,29.91,SW,233,1.0,4.0,81,0.00,,,0.00,weatherlink.com 1.10,2013-06-12 08:10:00,
2013-06-12 01:25:00,65.8,60.0,29.91,WSW,243,0.0,3.0,81,0.00,,,0.00,weatherlink.com 1.10,2013-06-12 08:25:00,
2013-06-12 01:40:00,66.0,60.0,29.91,WSW,251,3.0,3.0,81,0.00,,,0.00,weatherlink.com 1.10,2013-06-12 08:40:00,
2013-06-12 01:55:00,65.8,60.0,29.90,WSW,252,0.0,3.0,81,0.00,,,0.00,weatherlink.com 1.10,2013-06-12 08:55:00,
2013-06-12 02:10:00,65.9,60.0,29.90,WSW,241,0.0,3.0,81,0.00,,,0.00,weatherlink.com 1.10,2013-06-12 09:10:00,
2013-06-12 02:25:00,65.9,60.0,29.89,WSW,256,0.0,2.0,81,0.00,,,0.00,weatherlink.com 1.10,2013-06-12 09:25:00,
2013-06-12 02:40:00,65.8,60.0,29.89,WSW,257,0.0,1.0,81,0.00,,,0.00,weatherlink.com 1.10,2013-06-12 09:40:00,
2013-06-12 02:55:00,65.8,60.0,29.89,SW,222,0.0,2.0,81,0.00,,,0.00,weatherlink.com 1.10,2013-06-12 09:55:00,
2013-06-12 03:10:00,65.7,60.0,29.89,SE,139,0.0,1.0,81,0.00,,,0.00,weatherlink.com 1.10,2013-06-12 10:10:00,
2013-06-12 03:25:00,65.8,60.0,29.89,WSW,252,1.0,1.0,82,0.00,,,0.00,weatherlink.com 1.10,2013-06-12 10:25:00,
2013-06-12 03:40:00,65.8,60.0,29.89,WSW,250,0.0,1.0,81,0.00,,,0.00,weatherlink.com 1.10,2013-06-12 10:40:00,
2013-06-12 03:55:00,65.8,60.0,29.89,SSW,205,1.0,2.0,81,0.00,,,0.00,weatherlink.com 1.10,2013-06-12 10:55:00,
2013-06-12 04:10:00,65.8,60.0,29.89,SE,142,2.0,4.0,81,0.00,,,0.00,weatherlink.com 1.10,2013-06-12 11:10:00,
2013-06-12 04:25:00,65.7,60.0,29.89,SW,233,0.0,1.0,81,0.00,,,0.00,weatherlink.com 1.10,2013-06-12 11:25:00,
2013-06-12 04:40:00,65.7,60.0,29.89,West,264,0.0,2.0,82,0.00,,,0.00,weatherlink.com 1.10,2013-06-12 11:40:00,
2013-06-12 04:55:00,65.5,60.0,29.90,SW,236,0.0,1.0,82,0.00,,,0.00,weatherlink.com 1.10,2013-06-12 11:55:00,
2013-06-12 05:10:00,65.4,60.0,29.90,SW,215,0.0,3.0,82,0.00,,,0.00,weatherlink.com 1.10,2013-06-12 12:10:00,
2013-06-12 05:25:00,65.3,60.0,29.91,SE,146,1.0,2.0,82,0.00,,,0.00,weatherlink.com 1.10,2013-06-12 12:25:00,
2013-06-12 05:40:00,65.3,60.0,29.91,SW,231,1.0,4.0,82,0.00,,,0.00,weatherlink.com 1.10,2013-06-12 12:40:00,
2013-06-12 05:55:00,65.2,60.0,29.91,SE,132,0.0,2.0,82,0.00,,,0.00,weatherlink.com 1.10,2013-06-12 12:55:00,
2013-06-12 06:10:00,65.3,60.0,29.91,SW,219,0.0,3.0,82,0.00,,,0.00,weatherlink.com 1.10,2013-06-12 13:10:00,
2013-06-12 06:25:00,65.4,60.0,29.92,SW,235,0.0,3.0,83,0.00,,,0.00,weatherlink.com 1.10,2013-06-12 13:25:00,
2013-06-12 06:40:00,65.6,60.0,29.92,SW,233,0.0,3.0,83,0.00,,,0.00,weatherlink.com 1.10,2013-06-12 13:40:00,
2013-06-12 06:55:00,65.5,60.0,29.92,SSE,148,1.0,2.0,82,0.00,,,0.00,weatherlink.com 1.10,2013-06-12 13:55:00,
2013-06-12 07:10:00,65.7,60.0,29.92,SSW,205,1.0,2.0,82,0.00,,,0.00,weatherlink.com 1.10,2013-06-12 14:10:00,
2013-06-12 07:25:00,65.8,60.0,29.93,SW,224,0.0,3.0,82,0.00,,,0.00,weatherlink.com 1.10,2013-06-12 14:25:00,
2013-06-12 07:40:00,66.2,60.0,29.93,SSE,150,3.0,4.0,80,0.00,,,0.00,weatherlink.com 1.10,2013-06-12 14:40:00,
2013-06-12 07:55:00,66.3,60.0,29.93,SSE,166,2.0,6.0,80,0.00,,,0.00,weatherlink.com 1.10,2013-06-12 14:55:00,
2013-06-12 08:11:00,66.5,60.0,29.94,SW,228,1.0,2.0,80,0.00,,,0.00,weatherlink.com 1.10,2013-06-12 15:11:00,
2013-06-12 08:26:00,66.6,60.0,29.94,SSW,192,1.0,5.0,79,0.00,,,0.00,weatherlink.com 1.10,2013-06-12 15:26:00,
2013-06-12 08:41:00,66.7,60.0,29.95,SE,124,2.0,4.0,79,0.00,,,0.00,weatherlink.com 1.10,2013-06-12 15:41:00,
2013-06-12 08:56:00,66.6,60.0,29.95,SSW,196,1.0,4.0,80,0.00,,,0.00,weatherlink.com 1.10,2013-06-12 15:56:00,
2013-06-12 09:11:00,66.6,60.0,29.95,SE,130,1.0,5.0,80,0.00,,,0.00,weatherlink.com 1.10,2013-06-12 16:11:00,
2013-06-12 09:26:00,66.5,60.0,29.96,WSW,238,2.0,7.0,79,0.00,,,0.00,weatherlink.com 1.10,2013-06-12 16:26:00,
2013-06-12 09:41:00,66.4,60.0,29.97,WNW,297,4.0,7.0,79,0.00,,,0.00,weatherlink.com 1.10,2013-06-12 16:41:00,
2013-06-12 09:56:00,66.6,60.0,29.97,SSE,156,1.0,7.0,78,0.00,,,0.00,weatherlink.com 1.10,2013-06-12 16:56:00,
2013-06-12 10:11:00,66.6,60.0,29.97,South,172,3.0,5.0,78,0.00,,,0.00,weatherlink.com 1.10,2013-06-12 17:11:00,
2013-06-12 10:26:00,66.6,60.0,29.98,SSW,203,0.0,8.0,78,0.00,,,0.00,weatherlink.com 1.10,2013-06-12 17:26:00,
2013-06-12 10:41:00,66.4,60.0,29.98,SW,226,0.0,6.0,79,0.00,,,0.00,weatherlink.com 1.10,2013-06-12 17:41:00,
2013-06-12 10:56:00,66.2,60.0,29.99,SE,131,0.0,7.0,80,0.00,,,0.00,weatherlink.com 1.10,2013-06-12 17:56:00,
2013-06-12 11:11:00,66.1,61.0,30.00,SE,125,3.0,5.0,82,0.00,,,0.00,weatherlink.com 1.10,2013-06-12 18:11:00,
2013-06-12 11:26:00,66.2,61.0,30.00,SE,146,4.0,7.0,84,0.00,,,0.00,weatherlink.com 1.10,2013-06-12 18:26:00,
2013-06-12 11:41:00,66.0,61.0,30.00,SSE,150,3.0,7.0,84,0.00,,,0.00,weatherlink.com 1.10,2013-06-12 18:41:00,
2013-06-12 11:56:00,65.7,60.0,30.00,SSW,200,5.0,8.0,83,0.00,,,0.00,weatherlink.com 1.10,2013-06-12 18:56:00,
2013-06-12 12:11:00,66.3,60.0,29.99,ESE,118,3.0,8.0,81,0.00,,,0.00,weatherlink.com 1.10,2013-06-12 19:11:00,
2013-06-12 12:26:00,66.5,61.0,29.99,SE,125,5.0,9.0,81,0.00,,,0.00,weatherlink.com 1.10,2013-06-12 19:26:00,
2013-06-12 12:41:00,67.6,61.0,29.98,SSE,153,3.0,9.0,80,0.00,,,0.00,weatherlink.com 1.10,2013-06-12 19:41:00,
2013-06-12 12:56:00,69.6,62.0,29.98,ESE,119,2.0,6.0,76,0.00,,,0.00,weatherlink.com 1.10,2013-06-12 19:56:00,
2013-06-12 13:11:00,69.7,61.0,29.98,SE,138,4.0,7.0,74,0.00,,,0.00,weatherlink.com 1.10,2013-06-12 20:11:00,
2013-06-12 13:26:00,70.2,62.0,29.97,SSE,162,4.0,8.0,75,0.00,,,0.00,weatherlink.com 1.10,2013-06-12 20:26:00,
2013-06-12 13:41:00,70.5,61.0,29.97,West,261,4.0,9.0,72,0.00,,,0.00,weatherlink.com 1.10,2013-06-12 20:41:00,
2013-06-12 13:56:00,70.1,61.0,29.96,WSW,238,1.0,8.0,73,0.00,,,0.00,weatherlink.com 1.10,2013-06-12 20:56:00,
2013-06-12 14:11:00,70.4,61.0,29.96,SW,233,2.0,8.0,72,0.00,,,0.00,weatherlink.com 1.10,2013-06-12 21:11:00,
2013-06-12 14:26:00,70.0,61.0,29.95,SE,141,2.0,8.0,73,0.00,,,0.00,weatherlink.com 1.10,2013-06-12 21:26:00,
2013-06-12 14:41:00,70.5,61.0,29.95,SE,138,4.0,7.0,72,0.00,,,0.00,weatherlink.com 1.10,2013-06-12 21:41:00,
2013-06-12 14:56:00,71.1,61.0,29.95,SE,143,2.0,7.0,71,0.00,,,0.00,weatherlink.com 1.10,2013-06-12 21:56:00,
2013-06-12 15:11:00,71.4,61.0,29.94,SW,221,3.0,9.0,70,0.00,,,0.00,weatherlink.com 1.10,2013-06-12 22:11:00,
2013-06-12 15:26:00,71.8,62.0,29.94,SW,236,3.0,9.0,70,0.00,,,0.00,weatherlink.com 1.10,2013-06-12 22:26:00,
2013-06-12 15:41:00,71.7,61.0,29.93,SE,134,3.0,9.0,69,0.00,,,0.00,weatherlink.com 1.10,2013-06-12 22:41:00,
2013-06-12 15:56:00,72.1,61.0,29.93,SSE,158,2.0,7.0,68,0.00,,,0.00,weatherlink.com 1.10,2013-06-12 22:56:00,
2013-06-12 16:11:00,71.5,60.0,29.93,WSW,245,3.0,10.0,68,0.00,,,0.00,weatherlink.com 1.10,2013-06-12 23:11:00,
2013-06-12 16:26:00,71.5,60.0,29.93,SSW,205,4.0,9.0,68,0.00,,,0.00,weatherlink.com 1.10,2013-06-12 23:26:00,
2013-06-12 16:41:00,72.1,61.0,29.93,SSE,149,4.0,8.0,67,0.00,,,0.00,weatherlink.com 1.10,2013-06-12 23:41:00,
2013-06-12 16:56:00,72.0,60.0,29.93,SW,236,6.0,8.0,67,0.00,,,0.00,weatherlink.com 1.10,2013-06-12 23:56:00,
2013-06-12 17:11:00,71.9,60.0,29.92,SW,235,2.0,10.0,66,0.00,,,0.00,weatherlink.com 1.10,2013-06-13 00:11:00,
2013-06-12 17:26:00,71.9,60.0,29.92,SSW,205,2.0,8.0,67,0.00,,,0.00,weatherlink.com 1.10,2013-06-13 00:26:00,
2013-06-12 17:41:00,71.7,60.0,29.92,SW,228,1.0,8.0,67,0.00,,,0.00,weatherlink.com 1.10,2013-06-13 00:41:00,
2013-06-12 17:56:00,71.6,60.0,29.92,SW,228,5.0,8.0,66,0.00,,,0.00,weatherlink.com 1.10,2013-06-13 00:56:00,
2013-06-12 18:11:00,71.3,60.0,29.92,SSE,165,7.0,8.0,67,0.00,,,0.00,weatherlink.com 1.10,2013-06-13 01:11:00,
2013-06-12 18:26:00,70.6,60.0,29.92,SE,145,4.0,9.0,68,0.00,,,0.00,weatherlink.com 1.10,2013-06-13 01:26:00,
2013-06-12 18:41:00,69.4,59.0,29.92,SSE,148,3.0,8.0,70,0.00,,,0.00,weatherlink.com 1.10,2013-06-13 01:41:00,
2013-06-12 18:56:00,68.5,59.0,29.92,South,189,4.0,7.0,72,0.00,,,0.00,weatherlink.com 1.10,2013-06-13 01:56:00,
2013-06-12 19:11:00,68.1,59.0,29.93,SW,215,1.0,4.0,73,0.00,,,0.00,weatherlink.com 1.10,2013-06-13 02:11:00,
2013-06-12 19:26:00,67.8,59.0,29.93,WSW,258,2.0,6.0,73,0.00,,,0.00,weatherlink.com 1.10,2013-06-13 02:26:00,
2013-06-12 19:41:00,67.3,59.0,29.93,West,280,2.0,9.0,74,0.00,,,0.00,weatherlink.com 1.10,2013-06-13 02:41:00,
2013-06-12 19:56:00,67.0,58.0,29.94,NW,308,3.0,7.0,74,0.00,,,0.00,weatherlink.com 1.10,2013-06-13 02:56:00,
2013-06-12 20:11:00,66.8,59.0,29.94,West,267,2.0,6.0,75,0.00,,,0.00,weatherlink.com 1.10,2013-06-13 03:11:00,
2013-06-12 20:26:00,66.6,58.0,29.94,West,263,1.0,6.0,75,0.00,,,0.00,weatherlink.com 1.10,2013-06-13 03:26:00,
2013-06-12 20:41:00,66.6,58.0,29.94,WNW,290,3.0,7.0,75,0.00,,,0.00,weatherlink.com 1.10,2013-06-13 03:41:00,
2013-06-12 20:56:00,66.8,59.0,29.94,WNW,295,1.0,4.0,75,0.00,,,0.00,weatherlink.com 1.10,2013-06-13 03:56:00,
2013-06-12 21:11:00,66.5,58.0,29.95,WNW,294,3.0,7.0,75,0.00,,,0.00,weatherlink.com 1.10,2013-06-13 04:11:00,
2013-06-12 21:26:00,66.4,59.0,29.95,NW,305,1.0,6.0,76,0.00,,,0.00,weatherlink.com 1.10,2013-06-13 04:26:00,
2013-06-12 21:41:00,66.2,58.0,29.95,West,277,2.0,5.0,76,0.00,,,0.00,weatherlink.com 1.10,2013-06-13 04:41:00,
2013-06-12 21:56:00,66.1,58.0,29.96,WNW,295,3.0,6.0,76,0.00,,,0.00,weatherlink.com 1.10,2013-06-13 04:56:00,
2013-06-12 22:11:00,66.0,58.0,29.95,WNW,285,0.0,4.0,76,0.00,,,0.00,weatherlink.com 1.10,2013-06-13 05:11:00,
2013-06-12 22:26:00,65.9,58.0,29.95,NW,305,3.0,5.0,76,0.00,,,0.00,weatherlink.com 1.10,2013-06-13 05:26:00,
2013-06-12 22:41:00,65.7,58.0,29.96,WNW,291,4.0,5.0,76,0.00,,,0.00,weatherlink.com 1.10,2013-06-13 05:41:00,
2013-06-12 22:56:00,65.7,58.0,29.95,West,264,0.0,4.0,76,0.00,,,0.00,weatherlink.com 1.10,2013-06-13 05:56:00,
2013-06-12 23:11:00,65.8,58.0,29.95,West,269,0.0,1.0,76,0.00,,,0.00,weatherlink.com 1.10,2013-06-13 06:11:00,
2013-06-12 23:27:00,65.8,58.0,29.95,WNW,288,0.0,3.0,76,0.00,,,0.00,weatherlink.com 1.10,2013-06-13 06:27:00,
2013-06-12 23:42:00,65.8,58.0,29.95,West,266,1.0,1.0,76,0.00,,,0.00,weatherlink.com 1.10,2013-06-13 06:42:00,
2013-06-12 23:57:00,65.8,58.0,29.95,West,266,0.0,0.0,77,0.00,,,0.00,weatherlink.com 1.10,2013-06-13 06:57:00,